Flag for U.S.A. Weather past 2 weeks in Fairfax, Virginia, U.S.A.

Now
74 °F

Partly cloudy.


Feels Like: 72 °F
Forecast: 72 / 88 °F
Wind: 5 mph from South

Location: Washington-Dulles International Airport

Current Time: Aug 31, 2014 at 1:00:39 AM

Latest Report: Aug 30, 2014 at 11:52 PM


Visibility: 10 mi

Pressure: 30.13 "Hg

Humidity: 91%

Dew point: 71 °F

Location of FairfaxLocation

Historic Weather in Fairfax — Graph

°F

Fairfax temperature yesterday

Maximum temperature yesterday: 79 °F (at 2:52 PM)
Minimum temperature yesterday: 66 °F (at 2:52 AM)
Average temperature yesterday: 73 °F

Past Weeks' High & Low Weather Summary

 TemperatureHumidityPressure
High87 °F (Aug 17, 4:52 PM)100% (Aug 21, 3:52 AM)30.23 "Hg (Aug 21, 3:52 AM)
Low54 °F (Aug 29, 6:52 AM)32% (Aug 16, 4:52 PM)29.80 "Hg (Aug 18, 5:52 PM)
Average72 °F75%30.02 "Hg
* Reported Aug 15 11:52 PM — Aug 30 11:52 PM, Fairfax, Weather by CustomWeather, © 2014

Note: Actual official high and low records may vary slightly from our data, if they occured in-between our weather recording intervals... More about our weather records

Advertising

Fairfax weather history for previous 24 hours

 ConditionsComfort  
Time TempWeatherWind HumidityBarometerVisibility
11:52 PM
Aug 30
74 °FPartly cloudy.5 mph91%30.13 "Hg10 mi
10:52 PM75 °FPassing clouds.8 mph88%30.12 "Hg10 mi
9:52 PM76 °FPassing clouds.7 mph82%30.12 "Hg10 mi
8:52 PM77 °FOvercast.3 mph82%30.13 "Hg10 mi
7:52 PM77 °FPartly sunny.3 mph79%30.11 "Hg10 mi
6:52 PM78 °FBroken clouds.5 mph76%30.11 "Hg10 mi
5:52 PM79 °FPartly sunny.8 mph74%30.11 "Hg10 mi
4:52 PM79 °FPartly sunny.7 mph74%30.13 "Hg10 mi
3:52 PM79 °FBroken clouds.7 mph72%30.14 "Hg10 mi
2:52 PM79 °FMostly cloudy.7 mph72%30.16 "Hg10 mi
1:52 PM78 °FBroken clouds.9 mph71%30.18 "Hg10 mi
12:52 PM77 °FPartly sunny.10 mph71%30.20 "Hg10 mi
11:52 AM75 °FOvercast.9 mph71%30.21 "Hg10 mi
10:52 AM73 °FOvercast.9 mph76%30.22 "Hg10 mi
9:52 AM71 °FOvercast.7 mph78%30.22 "Hg10 mi
8:52 AM69 °FOvercast.6 mph81%30.23 "Hg10 mi
7:52 AM68 °FMostly cloudy.5 mph84%30.22 "Hg10 mi
6:52 AM67 °FMostly cloudy.3 mph87%30.22 "Hg10 mi
5:52 AM66 °FMostly cloudy.5 mph87%30.21 "Hg10 mi
4:52 AM66 °FPassing clouds.3 mph87%30.20 "Hg10 mi
3:52 AM67 °FOvercast.5 mph85%30.20 "Hg10 mi
2:52 AM66 °FMostly cloudy.No wind81%30.21 "Hg10 mi
1:52 AM67 °FOvercast.No wind73%30.21 "Hg10 mi
Weather by CustomWeather, © 2014

See weather overviewHow to use our weather pages